Find Starlink 4560

NORAD ID: 53691 Int'l Des: 2022-105 Owner: SPXS Country: US Constellation: starlink operational
LEOCIRCULARRETROGRADESSO

当前视图

正在加载3D地球...

关于 Starlink 4560

正在加载描述...

即将过境

Passes for default location (London). Set your location on the main map for personalized predictions.

高度历史

Loading altitude history...

两行轨道根数

1 53691U 22105AV 26149.62403427 -.00000949 00000-0 -61705-4 0 9991
2 53691 97.4294 30.5132 0003227 65.8299 294.3265 15.05660444205483
Epoch: May 29, 2026 • Age: 13 hours

当前状态

高度 557.6 km
速度 7.58 km/s
星下点 -21.68°S, 91.7°E
发射日期 Aug 31, 2022
运行时间 3.7 years
类型 internet

技术详情

分类 Payload
质量 300.00 kg
干质量 290.00 kg
总质量 300.00 kg
长度 0.20 m
直径 2.80 m
跨度 9.00 m
形状 Box + pan
制造商 SPXS
平台类型 Starlink
阶段状态 In Orbit
所有者/国家 SPXS/US

Most Searched